18.05.2024;22:00;6
18.05.2024;21:00;5
18.05.2024;20:00;4
18.05.2024;19:00;3
18.05.2024;18:00;3
18.05.2024;17:00;2
18.05.2024;16:00;2
18.05.2024;15:00;2
18.05.2024;14:00;2
18.05.2024;13:00;2
18.05.2024;12:00;2
18.05.2024;11:00;2
18.05.2024;10:00;2
18.05.2024;09:00;3
18.05.2024;08:00;3
18.05.2024;07:00;4
18.05.2024;06:00;5
18.05.2024;05:00;5
18.05.2024;04:00;6
18.05.2024;03:00;6
18.05.2024;02:00;7
18.05.2024;01:00;8
18.05.2024;00:00;8
17.05.2024;23:00;9
17.05.2024;22:00;10
17.05.2024;21:00;11
17.05.2024;20:00;12
17.05.2024;19:00;12
17.05.2024;18:00;12
17.05.2024;17:00;12
17.05.2024;16:00;12
17.05.2024;15:00;12
17.05.2024;14:00;12
17.05.2024;13:00;12
17.05.2024;12:00;12
17.05.2024;11:00;12
17.05.2024;10:00;12
17.05.2024;09:00;12
17.05.2024;08:00;11
17.05.2024;07:00;10
17.05.2024;06:00;10
17.05.2024;05:00;10
17.05.2024;04:00;9
17.05.2024;03:00;8
17.05.2024;02:00;8
17.05.2024;01:00;7
17.05.2024;00:00;7
16.05.2024;23:00;6
